sat.trackr.live / text

‹ back to catalog

STARLINK-5646

NORAD 55461 · 2023-015N

PAYLOAD ACTIVE UNKNOWN

§ Identity

Operator
Country
US
Launch date
2023-02-02
Launch site
AFETR
Launch vehicle
Mass (kg)
RCS (m²)

Purposes: comms

External: N2YO · Heavens-Above · Gunter

§ Orbital elements

Epoch: 2026-05-25T00:09:30.214944Z

Period
94.27 min
Inclination
42.9988°
Eccentricity
0.0001334
Mean motion
15.27584372 rev/d
Perigee alt
482.1 km
Apogee alt
484.0 km
Semi-major
6,861.2 km
B*
-1.2485e-5
RAAN
257.7323°
Arg perigee
266.1062°
Mean anomaly
93.9637°
Rev number
18,239

§ Raw data

STARLINK-56461 55461U 23015N   26145.00659971 -.00000606  00000+0 -12485-4 0  99942 55461  42.9988 257.7323 0001334 266.1062  93.9637 15.27584372182390

JSON: /api/v1/satellites/55461 · /tle

For live sub-satellite position, see the globe view (requires WebGL).

§ Visibility from observer

Set your observer location to see the next 7 days of passes ≥ 10°. The values pass through the URL so the page stays shareable.

No JS? Fill the form by hand. The geolocation button needs JavaScript.